Weather History for Tekamah, NE

Change the Weather History Date:

Tuesday, August 20, 2013

  Actual Average Record
Temperature  
Mean Temperature 79 °F -  
Max Temperature 89 °F 85 °F 99 °F (1972)
Min Temperature 69 °F 61 °F 40 °F (1950)
Cooling Degree Days 14    
Growing Degree Days 29 (Base 50)    
Moisture  
Dew Point 69 °F    
Average Humidity 77    
Maximum Humidity 93    
Minimum Humidity 57    
Precipitation  
Precipitation 0.00 in - - ()
Sea Level Pressure  
Sea Level Pressure 29.89 in    
Wind  
Wind Speed 7 mph (South)    
Max Wind Speed 15 mph    
Max Gust Speed 21 mph    
Visibility 5 miles    
Events      
Averages and records for this station are not official NWS values.
T = Trace of Precipitation, MM = Missing Value Source: NWS Daily Summary

Daily Weather History Graph

Daily Weather History Graph

Search for Another Location

Airport:

Trip Planner

Search our weather history database for the weather conditions in past years. The results will help you decide how hot, cold, wet, or windy it might be!

Date:

Astronomy

Aug. 20, 2013 Rise Set
Actual Time 6:38 AM CDT 8:16 PM CDT
Civil Twilight 6:08 AM CDT 8:46 PM CDT
Nautical Twilight 5:33 AM CDT 9:21 PM CDT
Astronomical Twilight 4:55 AM CDT 9:59 PM CDT
Moon 7:48 PM CDT (8/20) 6:10 AM CDT (8/20)
Length of Visible Light 14h 37m
Length of Day
13h 38m
Full, 100% of the Moon is Illuminated
Aug 20
Full
Aug 20
Full
Aug 28
Last Quarter
Sep 5
New
Sep 12
First Quarter

Hourly Weather History & Observations

Time (CDT) Temp. Heat Index Dew Point Humidity Pressure Visibility Wind Dir Wind Speed Gust Speed Precip Events Conditions
12:28 AM 69.8 °F - 66.2 °F 88% 29.94 in 2.5 mi South 4.6 mph - N/A   Clear
12:54 AM 69.1 °F - 66.9 °F 93% 29.90 in 2.5 mi South 3.5 mph - N/A   Clear
1:20 AM 69.8 °F - 66.2 °F 88% 29.94 in 3.0 mi SSE 4.6 mph - N/A   Clear
1:54 AM 70.0 °F - 66.9 °F 90% 29.89 in 4.0 mi SSE 5.8 mph - N/A   Scattered Clouds
2:54 AM 71.1 °F - 68.0 °F 90% 29.89 in 5.0 mi SSE 6.9 mph - N/A   Mostly Cloudy
3:54 AM 72.0 °F - 68.0 °F 87% 29.89 in 5.0 mi South 8.1 mph - N/A   Overcast
4:54 AM 73.0 °F - 66.9 °F 81% 29.88 in 6.0 mi South 8.1 mph - N/A   Haze
5:54 AM 72.0 °F - 66.9 °F 84% 29.88 in 6.0 mi South 10.4 mph - N/A   Haze
6:54 AM 72.0 °F - 66.9 °F 84% 29.88 in 5.0 mi SSW 10.4 mph - N/A   Haze
7:54 AM 73.0 °F - 66.9 °F 81% 29.89 in 5.0 mi SSW 10.4 mph - N/A   Haze
8:54 AM 75.9 °F - 68.0 °F 76% 29.91 in 5.0 mi South 12.7 mph 18.4 mph N/A   Haze
9:54 AM 79.0 °F - 69.1 °F 72% 29.91 in 6.0 mi SSW 8.1 mph 17.3 mph N/A   Haze
10:54 AM 81.0 °F 84.4 °F 70.0 °F 69% 29.91 in 6.0 mi South 10.4 mph 18.4 mph N/A   Haze
11:54 AM 84.0 °F 89.0 °F 71.1 °F 65% 29.91 in 6.0 mi SSW 9.2 mph 18.4 mph N/A   Haze
12:54 PM 84.9 °F 90.7 °F 72.0 °F 65% 29.89 in 6.0 mi SSW 12.7 mph 20.7 mph N/A   Haze
1:54 PM 87.1 °F 93.6 °F 72.0 °F 61% 29.88 in 7.0 mi South 12.7 mph - N/A   Clear
2:54 PM 88.0 °F 95.6 °F 73.0 °F 61% 29.86 in 7.0 mi South 11.5 mph - N/A   Clear
3:54 PM 89.1 °F 96.0 °F 72.0 °F 57% 29.85 in 7.0 mi South 15.0 mph 20.7 mph N/A   Clear
4:54 PM 89.1 °F 97.0 °F 73.0 °F 59% 29.85 in 7.0 mi South 9.2 mph - N/A   Clear
5:54 PM 88.0 °F 94.7 °F 72.0 °F 59% 29.85 in 6.0 mi South 10.4 mph 18.4 mph N/A   Haze
6:54 PM 84.0 °F 90.2 °F 73.0 °F 69% 29.85 in 6.0 mi South 6.9 mph - N/A   Haze
7:54 PM 80.1 °F 83.8 °F 72.0 °F 76% 29.86 in 5.0 mi South 6.9 mph - N/A   Haze
8:54 PM 75.9 °F - 71.1 °F 85% 29.87 in 6.0 mi South 5.8 mph - N/A   Haze
9:54 PM 73.9 °F - 70.0 °F 87% 29.88 in 5.0 mi South 4.6 mph - N/A   Clear
10:54 PM 73.0 °F - 69.1 °F 87% 29.88 in 5.0 mi SSE 5.8 mph - N/A   Clear
11:54 PM 73.0 °F - 69.1 °F 87% 29.88 in 5.0 mi South 5.8 mph - N/A   Clear